Regional Weather Roundup
Issued by NWS Newport/Morehead, NC

Current Version | Previous Version | Graphics & Text | Print | Product List | Glossary On
Versions: 1 2 3 4 5 6 7 8 9 10 11 12 13 14 15 16 17 18 19 20 21 22 23 24 25 26 27 28 29 30 31 32 33 34 35 36 37 38 39 40 41 42 43 44 45 46 47 48 49 50
000 ASUS42 KMHX 190425 RWRMHX WEATHER ROUNDUP FOR EASTERN NORTH CAROLINA NATIONAL WEATHER SERVICE NEWPORT/MOREHEAD CITY NC 1200 AM EDT THU OCT 19 2017 NOTE: "FAIR" INDICATES FEW OR NO CLOUDS BELOW 12,000 FEET WITH NO SIGNIFICANT WEATHER AND/OR OBSTRUCTIONS TO VISIBILITY NCZ015>017-031-032-045>047-102-103-190500- NORTH COAST CITY SKY/WX TMP DP RH WIND PRES REMARKS EDENTON CLEAR 53 51 93 CALM 30.32S ELIZABETH CITY CLEAR 60 56 86 N7 30.32F KITTY HAWK CLEAR 64 56 75 CALM 30.29F MANTEO CLEAR N/A N/A N/A NE5 30.30F $$ NCZ045>047-081-094-103-104-190500- CENTRAL COAST CITY SKY/WX TMP DP RH WIND PRES REMARKS FRISCO CLEAR 66 62 87 NE6 30.27F $$ NCZ095-097-098-100-101-190500- SOUTHERN COAST CITY SKY/WX TMP DP RH WIND PRES REMARKS BEAUFORT CLEAR 62 58 86 NE8 30.27F CEDAR ISLAND NOT AVBL JACKSONVILLE CLEAR 59 57 93 NE7 30.28F PINEY ISLAND N/A N/A N/A N/A N9 30.27F WILMINGTON CLEAR 57 53 86 NE6 30.28F $$ NCZ011>013-027>030-043-044-078>080-089-090>093-098-190500- COASTAL PLAIN CITY SKY/WX TMP DP RH WIND PRES REMARKS AHOSKIE CLEAR 47 47 100 CALM 30.32F CLINTON CLEAR 52 51 98 CALM 30.31S ELIZABETHTOWN NOT AVBL GOLDSBORO CLEAR 54 50 88 CALM 30.29F GREENVILLE CLEAR 52 50 93 CALM 30.31F FOG HAVELOCK PTCLDY 62 58 86 NE10 30.29F KENANSVILLE CLEAR 48 46 93 CALM 30.30F KINSTON CLEAR 51 50 97 CALM 30.31S NEW BERN MOCLDY 60 57 89 NE5 30.30F RICHLANDS CLEAR 53 52 96 N3 30.30S ROCKY MOUNT CLEAR 47 47 100 CALM 30.32S FOG WASHINGTON CLEAR 55 52 91 NE3 30.31S WHITEVILLE CLEAR 57 49 77 CALM 30.28F $$ AMZ130-135-150-152-154-156-158-170-250-252-270-ANZ085-086-088-633-658-670-190500- MARINE OBSERVATIONS STATION/POSITION TIME TEMP WIND PRES WAVE SWELL AIR SEA DIR/SP/G HT/PER HT/PER (UTC) (F) (DEG/KT/KT) (MB) (FT/S) (FT/S) CHESAPEAKE LIGHT NOT AVBL 64 E VA BEACH 0350 66 67 80/ 8/ 10 1027.0 4/10 3/10 DUCK 0400 66 69 50/ 9/ 10 1025.9 2 E DUCK 0400 69 N/A 3/ 8 2/11 OREGON INLET 0400 67 65 40/ 9/ 12 1025.5 13E OREGON INLT 0348 71 N/A 5/ 8 3/ 8 HATTERAS CG 0400 67 68 50/ 8/ 11 1024.9 DIAMOND BUOY 0350 74 82 60/ 14/ 19 1024.4 5/ 9 5/ 9 CAPE LOOKOUT 0400 65 360/ 11/ 13 1024.6 BEAUFORT LAB 0400 63 69 20/ 8/ 12 1025.3 30 SE NEW RVR IN 0308 71 40/ 19/ 23 1024.3 30 SE NEW RVR IN NOT AVBL 27 SE WRIGHTSVLE 0408 71 77 60/ 17/ 23 1023.9 5 SE WRIGHTSVLE 0408 69 74 40/ 16/ 23 1024.7 225 S CAPE HAT 0350 78 80 70/ 19/ 21 1020.5 8/ 8 5/ 8 41 SE CHARLESTON 0410 74 79 40/ 19/ 25 1022.4 $$

USA.gov is the U.S. government's official web portal to all federal, state and local government web resources and services.